Location: Unspecified
(0.0000°N, 0.0000°E)
Time: 14:59:36
(UTC+00:00)

HULIANWANG DIGUI-84 - Visible Passes

Search period start: 14 November 2025 00:00
Search period end: 24 November 2025 00:00
Orbit: 1140 x 1142 km, 86.5° (Epoch: 12 November)

Date Brightness Start Highest point End Pass type
(mag) Time Alt. Az. Time Alt. Az. Time Alt. Az.
14 Nov ? 03:24:25 10° SSE 03:30:48 37° E 03:37:08 10° NNE visible
14 Nov ? 05:13:57 10° SW 05:18:53 21° W 05:23:50 10° NW visible
15 Nov ? 02:52:43 10° SE 02:57:32 20° E 03:02:20 10° NE visible
15 Nov ? 04:39:13 10° SSW 04:45:38 39° W 04:52:03 10° NNW visible
16 Nov ? 04:05:23 10° S 04:12:23 72° W 04:19:21 10° N visible
17 Nov ? 03:32:11 10° S 03:39:07 64° E 03:46:02 10° N visible
18 Nov ? 02:59:38 10° SSE 03:05:52 34° E 03:12:04 10° NNE visible
18 Nov ? 04:48:44 10° SW 04:53:57 22° W 04:59:11 10° NW visible
19 Nov ? 02:28:07 10° SE 02:32:36 18° E 02:37:04 10° NE visible
19 Nov ? 04:14:10 10° SSW 04:20:42 42° W 04:25:16 19° NNW visible
20 Nov ? 03:40:25 10° S 03:47:26 78° W 03:50:10 41° NNW visible
21 Nov ? 03:07:18 10° SSE 03:14:11 59° E 03:15:30 51° NE visible
21 Nov ? 04:59:50 10° WSW 05:02:16 12° W 05:03:36 11° W visible
22 Nov ? 02:34:51 10° SSE 02:40:55 32° E 02:41:04 32° E visible
22 Nov ? 04:23:33 10° SW 04:29:01 25° W 04:29:12 25° W visible
23 Nov ? 02:03:33 10° SE 02:06:48 16° E 02:06:48 16° E visible
23 Nov ? 03:49:07 10° SSW 03:54:56 44° WSW 03:54:56 44° WSW visible
